#timestamp,LO_Frequency,Hit,StdDev 
1554019215.9,286047002.5,N
1554019235.7,286046999.8,N
1554019255.6,286047003.9,N
1554019275.4,286047003.5,N
1554019295.7,286047004.4,N
1554019315.6,286047004.2,N
1554019335.4,286047000.0,N
1554019355.3,286047002.8,N
1554019375.1,286047001.1,N
1554019376.0,286047001.1,N
1554019395.8,286046998.2,N
1554019415.7,286046998.9,N
1554019435.5,286046998.6,N
1554019455.3,286046996.6,N
1554019475.2,286046996.5,N
1554019495.0,286046997.0,N
1554019495.9,286046997.0,N
1554019515.8,286046998.7,N
1554019535.6,286047002.4,N
1554019555.4,286046999.8,N
1554019575.3,286047001.9,N
1554019595.1,286047001.6,N
1554019615.9,286047001.6,N
1554019635.7,286047002.4,N
1554019655.5,286046998.5,N
1554019675.4,286046997.3,N
1554019695.2,286046997.5,N
1554019715.0,286047000.7,N
1554019715.9,286047000.7,N
1554019735.8,286047001.5,N
1554019755.6,286047001.8,N
1554019775.5,286047000.2,N
1554019795.3,286046999.3,N
1554019815.1,286046996.5,N
1554019835.9,286046998.4,N
1554019855.7,286047000.3,N
1554019875.5,286046999.9,N
1554019895.4,286047002.1,N
1554019915.2,286047002.2,N
1554019935.1,286047001.6,N
1554019936.0,286047001.6,N
1554019955.8,286047001.3,N
1554019975.6,286047001.4,N
1554019995.5,286047004.4,N
1554020015.3,286047001.7,N
1554020035.1,286047001.3,N
1554020055.9,286047002.5,N
1554020075.7,286047002.5,N
1554020095.6,286046999.9,N
1554020115.4,286047002.3,N
1554020135.2,286047000.5,N
1554020155.1,286047001.0,N
1554020156.0,286047001.0,N
1554020175.8,286047000.9,N
1554020195.6,286047000.2,N
1554020215.5,286047002.7,N
1554020235.3,286047002.3,N
1554020255.2,286047000.4,N
1554020275.9,286047011.9,Y
1554020295.7,286046999.7,P
1554020315.6,286047000.7,N
1554020335.4,286047000.3,N
1554020355.2,286046998.2,Y
1554020375.1,286046998.9,P
1554020376.0,286046998.9,N
1554020395.8,286046998.2,N
1554020415.7,286046998.3,N
1554020435.5,286046998.8,N
1554020455.3,286046998.5,N
1554020475.2,286047000.8,N
1554020495.0,286046999.4,N
1554020495.9,286046999.4,N
1554020515.8,286046996.6,Y
1554020535.6,286046999.4,P
1554020555.4,286046999.2,P
1554020575.3,286046998.9,P
1554020595.1,286046999.4,Y
1554020615.8,286047000.6,P
1554020635.7,286046999.4,N
1554020655.5,286046996.9,P
1554020675.4,286046996.9,N
1554020695.2,286046996.8,N
1554020715.0,286046997.2,N
1554020715.9,286046997.2,N
1554020735.8,286046999.1,N
1554020755.6,286046999.3,N
1554020775.4,286047001.2,N
1554020795.3,286046998.0,N
1554020815.1,286046997.1,N
1554020835.9,286046997.3,N
1554020855.7,286046996.8,N
1554020875.5,286046995.4,Y
1554020895.4,286046998.3,P
1554020915.3,286046999.0,P
1554020935.1,286046996.6,P
1554020936.0,286046996.6,Y
1554020955.8,286046998.8,P
1554020975.7,286046996.9,P
1554020995.5,286046997.0,P
1554021015.3,286046999.5,N
1554021035.2,286047011.9,Y
1554021055.0,286047016.0,P
1554021055.9,286047016.0,N
1554021075.8,286047016.2,N
1554021095.6,286047016.5,N
1554021115.4,286047013.2,N
1554021135.3,286047008.2,N
1554021155.1,286047008.9,N
1554021175.9,286047004.5,N
1554021195.7,286047003.0,N
1554021215.5,286047002.9,N
1554021235.4,286047003.5,N
1554021255.2,286047003.9,N
1554021275.0,286047002.4,N
1554021275.9,286047002.4,N
1554021295.8,286047000.5,N
1554021315.6,286046998.5,N
1554021335.5,286046999.6,N
1554021355.3,286046997.1,N
1554021375.1,286046997.6,N
1554021395.9,286046997.7,N
1554021415.7,286046997.6,N
1554021435.5,286046997.0,N
1554021455.4,286046995.2,N
1554021475.2,286046994.0,N
1554021495.1,286046993.4,N
1554021496.0,286046993.4,N
1554021515.8,286046993.9,N
1554021535.6,286046996.2,N
1554021555.5,286046993.7,N
1554021575.3,286046994.5,N
1554021595.1,286046994.4,N
1554021615.9,286046994.8,N
1554021635.7,286046994.7,N
1554021655.6,286046994.2,N
1554021675.4,286046994.7,N
1554021695.2,286046996.3,N
1554021715.1,286046993.6,N
1554021716.0,286046993.6,N
1554021735.8,286046995.4,N
1554021755.7,286046997.0,N
1554021775.5,286046996.6,N
1554021795.3,286046997.3,N
1554021815.2,286046996.7,N
1554021835.0,286046999.6,N
1554021835.9,286046999.6,N
1554021855.7,286046997.9,N
1554021875.6,286046995.5,N
1554021895.4,286046994.1,Y
1554021915.3,286046999.3,P
1554021935.1,286046998.9,N
1554021955.8,286046998.5,N
1554021975.7,286047000.4,N
1554021995.5,286046998.7,N
1554022015.4,286047000.6,N
1554022035.2,286046998.8,N
1554022055.0,286046999.2,N
1554022055.9,286046999.2,N
1554022075.8,286046996.5,N
1554022095.6,286046996.5,N
1554022115.5,286046999.4,N
1554022135.3,286046999.1,N
1554022155.1,286046995.6,Y
1554022175.9,286046996.8,P
1554022195.7,286046997.8,N
1554022215.5,286046999.1,N
1554022235.4,286046998.7,N
1554022255.2,286046998.2,N
1554022275.1,286046999.1,N
1554022276.0,286046999.1,N
1554022295.8,286046998.4,N
1554022315.6,286046999.3,N
1554022335.5,286047000.6,N
1554022355.3,286047000.0,N
1554022375.3,286047008.8,Y
1554022395.1,286047011.4,P
1554022415.8,286047014.5,N
1554022435.7,286047012.8,N
1554022455.6,286047010.0,N
1554022475.5,286047008.3,N
1554022495.4,286047008.5,N
1554022515.2,286047008.5,N
1554022535.1,286047008.1,N
1554022536.0,286047008.1,N
1554022555.8,286047006.6,N
1554022575.6,286047008.7,N
1554022595.5,286047007.3,N
1554022615.3,286047006.1,N
1554022635.1,286047006.9,N
1554022655.9,286047004.6,N
1554022675.7,286047004.6,N
1554022695.6,286047005.5,N
1554022715.4,286047005.6,N
1554022735.2,286047003.2,N
1554022755.1,286047003.8,N
1554022756.0,286047003.8,N
1554022775.8,286047005.5,N
1554022795.6,286047002.9,N
